Regional Weather Roundup
Issued by NWS Charleston, WV

Home | Current Version | Previous Version | Graphics & Text | Print | Product List | Glossary On
Versions: 1 2 3 4 5 6 7 8 9 10 11 12 13 14 15 16 17 18 19 20 21 22 23 24 25 26 27 28 29 30 31 32 33 34 35 36 37 38 39 40 41 42 43 44 45 46 47 48 49 50
000
ASUS41 KRLX 171010
RWRRLX
West Virginia Regional Weather Roundup
National Weather Service Charleston WV
600 AM EDT WED SEP 17 2014

Note: "fair" indicates few or no clouds below 12,000 feet with no
significant weather and/or obstructions to visibility.

WVZ003-171100-
Northern Panhandle of West Virginia

CITY           SKY/WX    TMP DP  RH WIND       PRES   REMARKS
WHEELING       CLEAR     47  46  97 CALM      30.07S
$$

WVZ009-171100-
Northwest West Virginia

CITY           SKY/WX    TMP DP  RH WIND       PRES   REMARKS
PARKERSBURG    CLOUDY    49  49 100 CALM      30.08S FOG
$$

WVZ006-171100-
Western West Virginia

CITY           SKY/WX    TMP DP  RH WIND       PRES   REMARKS
HUNTINGTON     CLEAR     50  49  96 NW3       30.07R FOG
$$

WVZ015-171100-
West Central West Virginia

CITY           SKY/WX    TMP DP  RH WIND       PRES   REMARKS
CHARLESTON     FOG       55  55 100 CALM      30.06S VSB 1/4
$$

WVZ031-171100-
North Central West Virginia

CITY           SKY/WX    TMP DP  RH WIND       PRES   REMARKS
CLARKSBURG     FOG       49  48  97 N3        30.07S VSB 3/4
MORGANTOWN     PTCLDY    49  45  86 CALM      30.08S FOG
$$

WVZ035-042-045-171100-
South Central West Virginia

CITY           SKY/WX    TMP DP  RH WIND       PRES   REMARKS
BECKLEY        CLOUDY    53  51  93 E3        30.06F
BLUEFIELD      FOG       55  52  89 NE3       30.07S VSB 1/4
LEWISBURG      FOG       50  48  94 CALM      30.07S VSB 1/2
$$

WVZ047-171100-
Northern Mountains of West Virginia

CITY           SKY/WX    TMP DP  RH WIND       PRES   REMARKS
ELKINS         CLOUDY    50  47  89 CALM      30.09S
$$

WVZ052-171100-
Eastern Panhandle of West Virginia

CITY           SKY/WX    TMP DP  RH WIND       PRES   REMARKS
MARTINSBURG    CLEAR     47  43  86 CALM      30.07R FOG
PETERSBURG     MOCLDY    45  42  92 CALM      30.10R FOG
$$



USA.gov is the U.S. government's official web portal to all federal, state and local government web resources and services.